Weather History for Dayton Wright, OH

Change the Weather History Date:

Wednesday, August 21, 2013

  Actual Average (KFFO) Record (KFFO)
Temperature  
Mean Temperature 76 °F -  
Max Temperature 84 °F 81 °F 91 °F (2003)
Min Temperature 69 °F 60 °F 50 °F (1999)
Cooling Degree Days 12    
Growing Degree Days 26 (Base 50)    
Moisture  
Dew Point 66 °F    
Average Humidity 74    
Maximum Humidity 90    
Minimum Humidity 56    
Precipitation  
Precipitation 0.00 in - - ()
Sea Level Pressure  
Sea Level Pressure 30.13 in    
Wind  
Wind Speed 5 mph (SSE)    
Max Wind Speed 12 mph    
Max Gust Speed -    
Visibility 9 miles    
Events Thunderstorm    
Averages and records for this station are not official NWS values.
T = Trace of Precipitation, MM = Missing Value Source: NWS Daily Summary

Daily Weather History Graph

Daily Weather History Graph

Search for Another Location

Airport:

Trip Planner

Search our weather history database for the weather conditions in past years. The results will help you decide how hot, cold, wet, or windy it might be!

Date:

Astronomy

Aug. 21, 2013 Rise Set
Actual Time 6:55 AM EDT 8:24 PM EDT
Civil Twilight 6:26 AM EDT 8:52 PM EDT
Nautical Twilight 5:52 AM EDT 9:26 PM EDT
Astronomical Twilight 5:16 AM EDT 10:02 PM EDT
Moon 8:32 PM EDT (8/21) 7:33 AM EDT (8/21)
Length of Visible Light 14h 25m
Length of Day
13h 29m
Full, 100% of the Moon is Illuminated
Aug 21
Full
Aug 28
Last Quarter
Sep 5
New
Sep 12
First Quarter
Sep 19
Full

Hourly Weather History & Observations

Time (EDT) Temp. Heat Index Dew Point Humidity Pressure Visibility Wind Dir Wind Speed Gust Speed Precip Events Conditions
12:53 AM 73.0 °F - 62.1 °F 68% 30.13 in 10.0 mi SE 6.9 mph - N/A   Scattered Clouds
1:53 AM 72.0 °F - 62.1 °F 71% 30.13 in 10.0 mi SE 6.9 mph - N/A   Clear
2:53 AM 71.1 °F - 62.1 °F 73% 30.12 in 10.0 mi SE 6.9 mph - N/A   Clear
3:53 AM 70.0 °F - 63.0 °F 78% 30.12 in 10.0 mi SE 5.8 mph - N/A   Partly Cloudy
4:53 AM 69.1 °F - 63.0 °F 81% 30.12 in 9.0 mi Calm Calm - N/A   Mostly Cloudy
5:53 AM 72.0 °F - 63.0 °F 73% 30.12 in 10.0 mi SE 4.6 mph - N/A   Mostly Cloudy
6:53 AM 70.0 °F - 63.0 °F 78% 30.13 in 9.0 mi SE 3.5 mph - N/A   Mostly Cloudy
7:53 AM 70.0 °F - 64.0 °F 81% 30.15 in 7.0 mi Calm Calm - N/A   Scattered Clouds
8:00 AM 69.8 °F - 64.4 °F 83% 30.17 in 7.0 mi East 3.5 mph - N/A   Mostly Cloudy
8:24 AM 71.6 °F - 64.4 °F 78% 30.18 in 7.0 mi ESE 4.6 mph - N/A   Mostly Cloudy
8:49 AM 71.6 °F - 64.4 °F 78% 30.18 in 8.0 mi SSE 4.6 mph - N/A   Mostly Cloudy
8:53 AM 72.0 °F - 64.9 °F 78% 30.17 in 8.0 mi Calm Calm - N/A   Mostly Cloudy
9:12 AM 71.6 °F - 64.4 °F 78% 30.19 in 8.0 mi SSE 6.9 mph - N/A   Mostly Cloudy
9:36 AM 71.6 °F - 66.2 °F 83% 30.19 in 7.0 mi South 5.8 mph - 0.00 in   Mostly Cloudy
9:53 AM 72.0 °F - 66.0 °F 81% 30.17 in 7.0 mi SSE 4.6 mph - 0.00 in   Mostly Cloudy
10:53 AM 75.0 °F - 68.0 °F 79% 30.16 in 8.0 mi SSW 5.8 mph - N/A   Scattered Clouds
11:53 AM 78.1 °F - 70.0 °F 76% 30.16 in 10.0 mi SSW 5.8 mph - N/A   Partly Cloudy
12:34 PM 80.6 °F 83.9 °F 69.8 °F 70% 30.17 in 10.0 mi West 6.9 mph - N/A   Mostly Cloudy
12:53 PM 80.1 °F 82.7 °F 68.0 °F 67% 30.14 in 10.0 mi SW 6.9 mph - N/A   Mostly Cloudy
1:03 PM 80.6 °F 83.2 °F 68.0 °F 65% 30.16 in 10.0 mi SSW 5.8 mph - N/A   Partly Cloudy
1:26 PM 82.4 °F 86.3 °F 69.8 °F 66% 30.15 in 10.0 mi Variable 6.9 mph - N/A Thunderstorm Clear
1:41 PM 80.6 °F 83.2 °F 68.0 °F 65% 30.15 in 10.0 mi Variable 6.9 mph - N/A   Partly Cloudy
1:53 PM 81.0 °F 84.1 °F 69.1 °F 67% 30.12 in 10.0 mi SSE 4.6 mph - N/A   Clear
2:48 PM 78.8 °F - 69.8 °F 74% 30.13 in 10.0 mi South 6.9 mph - N/A Thunderstorm Thunderstorm
2:53 PM 79.0 °F - 69.1 °F 72% 30.11 in 10.0 mi South 11.5 mph - N/A Thunderstorm Thunderstorm
3:04 PM 78.8 °F - 66.2 °F 65% 30.12 in 10.0 mi SSW 8.1 mph - N/A   Mostly Cloudy
3:53 PM 79.0 °F - 70.0 °F 74% 30.09 in 10.0 mi South 5.8 mph - N/A   Clear
4:53 PM 82.0 °F 85.5 °F 69.1 °F 65% 30.08 in 10.0 mi South 6.9 mph - N/A   Clear
5:53 PM 84.0 °F 86.5 °F 66.9 °F 56% 30.08 in 10.0 mi Calm Calm - N/A   Partly Cloudy
6:53 PM 79.0 °F - 66.9 °F 66% 30.07 in 10.0 mi SSE 5.8 mph - N/A   Clear
7:53 PM 79.0 °F - 68.0 °F 69% 30.07 in 10.0 mi SSE 5.8 mph - N/A   Clear
8:53 PM 75.9 °F - 68.0 °F 76% 30.06 in 10.0 mi South 4.6 mph - N/A   Clear
9:53 PM 73.0 °F - 66.9 °F 81% 30.06 in 10.0 mi South 9.2 mph - N/A   Clear
10:53 PM 72.0 °F - 66.9 °F 84% 30.10 in 10.0 mi South 3.5 mph - N/A   Clear
11:53 PM 70.0 °F - 66.9 °F 90% 30.11 in 10.0 mi South 4.6 mph - N/A   Clear